ACA157 KLAX-KSFO

Flight info

Callsign ACA157
Flight time 0h 54m
Altitude 40000
Route SUMMR2 STOKD SERFR SERFR4
Aircraft A333/H-SDE3GHIJ2J3J5M1RVWXY/LB2D1

Departure

Time 2026-04-24 06:54
Airport Los Angeles International Airport (KLAX)

Arrival

Time 2026-04-24 07:48
Airport San Francisco International Airport (KSFO)
Time Latitude Longitude Altitude Speed Heading
2026-04-24 06:33 33.94088 -118.40123 127 ft 0 kts 263°
2026-04-24 06:43 33.94091 -118.40110 126 ft 2 kts 234°
2026-04-24 06:44 33.94102 -118.40098 126 ft 2 kts 215°
2026-04-24 06:44 33.94115 -118.40089 126 ft 2 kts 195°
2026-04-24 06:44 33.94130 -118.40087 126 ft 2 kts 174°
2026-04-24 06:44 33.94145 -118.40090 126 ft 2 kts 169°
2026-04-24 06:45 33.94160 -118.40093 126 ft 2 kts 172°
2026-04-24 06:45 33.94165 -118.40094 126 ft 0 kts 173°
2026-04-24 06:48 33.94163 -118.40094 126 ft 1 kts 173°
2026-04-24 06:48 33.94138 -118.40090 126 ft 5 kts 173°
2026-04-24 06:49 33.94083 -118.40082 126 ft 9 kts 173°
2026-04-24 06:49 33.94006 -118.40070 127 ft 12 kts 173°
2026-04-24 06:49 33.93916 -118.40041 127 ft 14 kts 144°
2026-04-24 06:49 33.93887 -118.39923 124 ft 17 kts 86°
2026-04-24 06:50 33.93905 -118.39764 121 ft 21 kts 82°
2026-04-24 06:50 33.93924 -118.39572 119 ft 23 kts 85°
2026-04-24 06:50 33.93942 -118.39372 117 ft 24 kts 83°
2026-04-24 06:50 33.93965 -118.39157 116 ft 27 kts 83°
2026-04-24 06:51 33.93990 -118.38918 113 ft 29 kts 83°
2026-04-24 06:51 33.94016 -118.38665 113 ft 31 kts 83°
2026-04-24 06:51 33.94041 -118.38399 111 ft 32 kts 83°
2026-04-24 06:51 33.94062 -118.38214 110 ft 17 kts 83°
2026-04-24 06:52 33.94076 -118.38082 110 ft 7 kts 85°
2026-04-24 06:52 33.94075 -118.38059 110 ft 0 kts 103°
2026-04-24 06:52 33.94071 -118.38047 110 ft 3 kts 120°
2026-04-24 06:53 33.94044 -118.38018 110 ft 7 kts 153°
2026-04-24 06:53 33.94002 -118.38027 110 ft 7 kts 226°
2026-04-24 06:53 33.93977 -118.38125 110 ft 33 kts 262°
2026-04-24 06:53 33.93909 -118.38751 113 ft 113 kts 263°
2026-04-24 06:54 33.93784 -118.39952 153 ft 171 kts 263°
2026-04-24 06:54 33.93638 -118.41363 816 ft 170 kts 263°
2026-04-24 06:54 33.93500 -118.42780 1530 ft 173 kts 263°
2026-04-24 06:54 33.93370 -118.44196 2223 ft 171 kts 264°
2026-04-24 06:55 33.93240 -118.45639 2709 ft 181 kts 264°
2026-04-24 06:55 33.93088 -118.47210 3105 ft 198 kts 264°
2026-04-24 06:55 33.92935 -118.48923 3524 ft 215 kts 265°
2026-04-24 06:55 33.92775 -118.50801 3952 ft 235 kts 265°
2026-04-24 06:56 33.92605 -118.52847 4456 ft 256 kts 265°
2026-04-24 06:56 33.92426 -118.55016 5095 ft 271 kts 265°
2026-04-24 06:56 33.92236 -118.57282 6036 ft 275 kts 265°
2026-04-24 06:56 33.92049 -118.59555 7058 ft 276 kts 265°
2026-04-24 06:57 33.91861 -118.61832 8063 ft 277 kts 266°
2026-04-24 06:57 33.91774 -118.64105 9022 ft 278 kts 270°
2026-04-24 06:57 33.91761 -118.66424 10017 ft 279 kts 270°
2026-04-24 06:57 33.91755 -118.68759 10924 ft 284 kts 270°
2026-04-24 06:58 33.91750 -118.71187 11565 ft 298 kts 270°
2026-04-24 06:58 33.91742 -118.73750 11911 ft 322 kts 270°
2026-04-24 06:58 33.91731 -118.76523 11968 ft 337 kts 270°
2026-04-24 06:58 33.91718 -118.79359 11973 ft 340 kts 270°
2026-04-24 06:59 33.91704 -118.82214 11976 ft 341 kts 270°
2026-04-24 06:59 33.91753 -118.85077 12029 ft 345 kts 272°
2026-04-24 06:59 33.91840 -118.88031 12660 ft 355 kts 272°
2026-04-24 06:59 33.91928 -118.90923 13799 ft 351 kts 272°
2026-04-24 07:00 33.92015 -118.93840 14808 ft 351 kts 272°
2026-04-24 07:00 33.92103 -118.96779 15644 ft 355 kts 272°
2026-04-24 07:00 33.92323 -118.99713 16441 ft 360 kts 280°
2026-04-24 07:00 33.93029 -119.02642 17283 ft 365 kts 289°
2026-04-24 07:01 33.94172 -119.05376 18070 ft 371 kts 298°
2026-04-24 07:01 33.95519 -119.08021 18824 ft 375 kts 299°
2026-04-24 07:01 33.96886 -119.10658 19591 ft 378 kts 299°
2026-04-24 07:01 33.98279 -119.13343 20360 ft 381 kts 299°
2026-04-24 07:02 33.99732 -119.16019 21093 ft 385 kts 303°
2026-04-24 07:02 34.01472 -119.18494 21800 ft 391 kts 310°
2026-04-24 07:02 34.03499 -119.20708 22497 ft 398 kts 317°
2026-04-24 07:02 34.05734 -119.22703 23169 ft 402 kts 320°
2026-04-24 07:03 34.08019 -119.24670 23842 ft 406 kts 320°
2026-04-24 07:03 34.10311 -119.26632 24489 ft 409 kts 320°
2026-04-24 07:03 34.12638 -119.28626 25131 ft 412 kts 320°
2026-04-24 07:03 34.14980 -119.30637 25749 ft 416 kts 320°
2026-04-24 07:04 34.17335 -119.32664 26365 ft 419 kts 320°
2026-04-24 07:04 34.19716 -119.34713 26962 ft 422 kts 319°
2026-04-24 07:04 34.22104 -119.36774 27539 ft 425 kts 319°
2026-04-24 07:04 34.24516 -119.38855 28124 ft 428 kts 319°
2026-04-24 07:05 34.26963 -119.40971 28669 ft 431 kts 319°
2026-04-24 07:05 34.29414 -119.43093 29214 ft 434 kts 319°
2026-04-24 07:05 34.31886 -119.45232 29776 ft 437 kts 319°
2026-04-24 07:05 34.34354 -119.47368 30534 ft 434 kts 319°
2026-04-24 07:06 34.36816 -119.49496 31332 ft 429 kts 318°
2026-04-24 07:06 34.39204 -119.51655 32085 ft 423 kts 315°
2026-04-24 07:06 34.41441 -119.53902 32784 ft 418 kts 313°
2026-04-24 07:06 34.43588 -119.56290 33457 ft 413 kts 310°
2026-04-24 07:07 34.45607 -119.58726 34113 ft 410 kts 309°
2026-04-24 07:07 34.47607 -119.61175 34711 ft 408 kts 308°
2026-04-24 07:07 34.51616 -119.66118 35571 ft 412 kts 308°
2026-04-24 07:08 34.53622 -119.68593 35962 ft 414 kts 308°
2026-04-24 07:08 34.55618 -119.71054 36027 ft 415 kts 308°
2026-04-24 07:08 34.59707 -119.76104 36030 ft 415 kts 308°
2026-04-24 07:09 34.63766 -119.81121 36033 ft 415 kts 308°
2026-04-24 07:09 34.67806 -119.86122 36029 ft 416 kts 308°
2026-04-24 07:10 34.71878 -119.91170 36042 ft 415 kts 308°
2026-04-24 07:10 34.75916 -119.96183 36031 ft 416 kts 308°
2026-04-24 07:11 34.79953 -120.01205 36038 ft 416 kts 308°
2026-04-24 07:11 34.83997 -120.06239 36040 ft 416 kts 308°
2026-04-24 07:12 34.88064 -120.11311 36041 ft 417 kts 308°
2026-04-24 07:12 34.92146 -120.16412 36035 ft 417 kts 308°
2026-04-24 07:13 34.94197 -120.18976 35732 ft 418 kts 308°
2026-04-24 07:13 34.96230 -120.21523 35888 ft 419 kts 308°
2026-04-24 07:13 35.00311 -120.26636 36013 ft 420 kts 308°
2026-04-24 07:14 35.04371 -120.31734 36035 ft 419 kts 308°
2026-04-24 07:14 35.08472 -120.36860 36039 ft 422 kts 309°
2026-04-24 07:15 35.12775 -120.41742 36035 ft 422 kts 311°
2026-04-24 07:15 35.17135 -120.46620 36041 ft 422 kts 311°
2026-04-24 07:16 35.21450 -120.51453 36032 ft 423 kts 311°
2026-04-24 07:16 35.25803 -120.56345 36033 ft 423 kts 311°
2026-04-24 07:17 35.30121 -120.61203 36037 ft 423 kts 311°
2026-04-24 07:17 35.34444 -120.66075 36034 ft 424 kts 310°
2026-04-24 07:18 35.38794 -120.70986 36041 ft 424 kts 310°
2026-04-24 07:18 35.43130 -120.75890 36041 ft 425 kts 310°
2026-04-24 07:19 35.47503 -120.80794 36043 ft 426 kts 312°
2026-04-24 07:19 35.52152 -120.85325 36044 ft 429 kts 315°
2026-04-24 07:20 35.56921 -120.89746 36043 ft 430 kts 316°
2026-04-24 07:20 35.61692 -120.94175 35765 ft 429 kts 316°
2026-04-24 07:21 35.64094 -120.96404 35555 ft 428 kts 316°
2026-04-24 07:21 35.66454 -120.98601 35338 ft 426 kts 316°
2026-04-24 07:21 35.68794 -121.00776 35104 ft 424 kts 316°
2026-04-24 07:21 35.71134 -121.02958 34815 ft 424 kts 316°
2026-04-24 07:22 35.73515 -121.05179 34386 ft 424 kts 316°
2026-04-24 07:22 35.75864 -121.07377 33761 ft 426 kts 316°
2026-04-24 07:22 35.78212 -121.09573 33159 ft 426 kts 316°
2026-04-24 07:22 35.80564 -121.11777 32500 ft 428 kts 317°
2026-04-24 07:23 35.82928 -121.13989 31867 ft 429 kts 317°
2026-04-24 07:23 35.85292 -121.16202 31211 ft 430 kts 317°
2026-04-24 07:23 35.87682 -121.18443 30549 ft 432 kts 317°
2026-04-24 07:23 35.90073 -121.20686 29887 ft 434 kts 317°
2026-04-24 07:24 35.92471 -121.22936 29198 ft 435 kts 318°
2026-04-24 07:24 35.94865 -121.25185 28743 ft 432 kts 318°
2026-04-24 07:24 35.97243 -121.27417 28339 ft 427 kts 318°
2026-04-24 07:24 35.99591 -121.29624 27913 ft 424 kts 318°
2026-04-24 07:25 36.01911 -121.31808 27486 ft 420 kts 318°
2026-04-24 07:25 36.04228 -121.33991 27060 ft 417 kts 318°
2026-04-24 07:25 36.06555 -121.36119 26653 ft 415 kts 320°
2026-04-24 07:25 36.08957 -121.38101 26241 ft 413 kts 323°
2026-04-24 07:26 36.11385 -121.40005 25825 ft 410 kts 323°
2026-04-24 07:26 36.13768 -121.41860 25433 ft 407 kts 324°
2026-04-24 07:26 36.16155 -121.43717 25038 ft 404 kts 324°
2026-04-24 07:26 36.18528 -121.45565 24634 ft 401 kts 324°
2026-04-24 07:27 36.20880 -121.47395 24239 ft 399 kts 324°
2026-04-24 07:27 36.23214 -121.49210 23832 ft 396 kts 324°
2026-04-24 07:27 36.25534 -121.51019 23424 ft 394 kts 324°
2026-04-24 07:27 36.27846 -121.52827 23031 ft 392 kts 324°
2026-04-24 07:28 36.30135 -121.54620 22633 ft 391 kts 324°
2026-04-24 07:28 36.32429 -121.56421 22235 ft 389 kts 323°
2026-04-24 07:28 36.34723 -121.58231 21837 ft 387 kts 324°
2026-04-24 07:28 36.36964 -121.60003 21445 ft 386 kts 324°
2026-04-24 07:29 36.39226 -121.61789 21039 ft 385 kts 324°
2026-04-24 07:29 36.41492 -121.63575 20637 ft 384 kts 324°
2026-04-24 07:29 36.43745 -121.65350 20244 ft 382 kts 324°
2026-04-24 07:29 36.45969 -121.67103 20044 ft 375 kts 324°
2026-04-24 07:30 36.48148 -121.68818 20036 ft 366 kts 324°
2026-04-24 07:30 36.50268 -121.70486 20004 ft 361 kts 324°
2026-04-24 07:30 36.52389 -121.72161 19580 ft 363 kts 324°
2026-04-24 07:30 36.54516 -121.73846 19104 ft 364 kts 324°
2026-04-24 07:31 36.56652 -121.75537 18655 ft 365 kts 325°
2026-04-24 07:31 36.58792 -121.77232 18224 ft 364 kts 325°
2026-04-24 07:31 36.60925 -121.78921 17802 ft 363 kts 326°
2026-04-24 07:31 36.63055 -121.80609 17408 ft 361 kts 326°
2026-04-24 07:32 36.65170 -121.82286 17036 ft 359 kts 326°
2026-04-24 07:32 36.67265 -121.83949 16674 ft 356 kts 326°
2026-04-24 07:32 36.69320 -121.85580 16319 ft 353 kts 327°
2026-04-24 07:32 36.71394 -121.87223 15946 ft 351 kts 327°
2026-04-24 07:33 36.73509 -121.88736 15561 ft 349 kts 334°
2026-04-24 07:33 36.75765 -121.89838 15195 ft 347 kts 342°
2026-04-24 07:33 36.78070 -121.90572 14847 ft 345 kts 347°
2026-04-24 07:33 36.80405 -121.91215 14503 ft 342 kts 347°
2026-04-24 07:34 36.82724 -121.91842 14163 ft 338 kts 347°
2026-04-24 07:34 36.85022 -121.92467 13839 ft 335 kts 347°
2026-04-24 07:34 36.87262 -121.93086 13519 ft 331 kts 347°
2026-04-24 07:34 36.89533 -121.93718 13181 ft 328 kts 347°
2026-04-24 07:35 36.91729 -121.94331 12832 ft 327 kts 347°
2026-04-24 07:35 36.93945 -121.94951 12471 ft 325 kts 347°
2026-04-24 07:35 36.96145 -121.95679 12104 ft 323 kts 343°
2026-04-24 07:35 36.98264 -121.96490 11757 ft 321 kts 343°
2026-04-24 07:36 37.00389 -121.97320 11407 ft 319 kts 342°
2026-04-24 07:36 37.02509 -121.98151 11071 ft 317 kts 343°
2026-04-24 07:36 37.04615 -121.98976 10731 ft 314 kts 342°
2026-04-24 07:36 37.06696 -121.99789 10390 ft 312 kts 343°
2026-04-24 07:37 37.08729 -122.00584 10161 ft 305 kts 342°
2026-04-24 07:37 37.10742 -122.01369 10093 ft 292 kts 342°
2026-04-24 07:37 37.12655 -122.02116 10019 ft 280 kts 342°
2026-04-24 07:37 37.14469 -122.02826 9907 ft 274 kts 342°
2026-04-24 07:38 37.16302 -122.03545 9576 ft 274 kts 342°
2026-04-24 07:38 37.18132 -122.04260 9259 ft 273 kts 343°
2026-04-24 07:38 37.19926 -122.04959 8966 ft 272 kts 342°
2026-04-24 07:38 37.21735 -122.05667 8677 ft 271 kts 342°
2026-04-24 07:39 37.23541 -122.06377 8382 ft 270 kts 342°
2026-04-24 07:39 37.25309 -122.07070 8092 ft 268 kts 342°
2026-04-24 07:39 37.27084 -122.07767 7967 ft 260 kts 342°
2026-04-24 07:39 37.28793 -122.08440 7781 ft 258 kts 342°
2026-04-24 07:40 37.30530 -122.09125 7366 ft 262 kts 343°
2026-04-24 07:40 37.32261 -122.09808 6968 ft 264 kts 343°
2026-04-24 07:40 37.34021 -122.10502 6569 ft 266 kts 343°
2026-04-24 07:40 37.35777 -122.11192 6175 ft 268 kts 343°
2026-04-24 07:41 37.37546 -122.11887 5963 ft 261 kts 344°
2026-04-24 07:41 37.39299 -122.12500 5772 ft 256 kts 345°
2026-04-24 07:41 37.41003 -122.13082 5537 ft 252 kts 345°
2026-04-24 07:41 37.42694 -122.13661 5291 ft 248 kts 345°
2026-04-24 07:42 37.44339 -122.14225 5052 ft 244 kts 345°
2026-04-24 07:42 37.45956 -122.14774 4676 ft 238 kts 346°
2026-04-24 07:42 37.47548 -122.15227 4294 ft 231 kts 359°
2026-04-24 07:42 37.49099 -122.14902 3945 ft 221 kts 18°
2026-04-24 07:43 37.50519 -122.14326 3563 ft 213 kts
2026-04-24 07:43 37.51941 -122.14638 3166 ft 207 kts 331°
2026-04-24 07:43 37.52941 -122.15835 2983 ft 194 kts 306°
2026-04-24 07:43 37.53622 -122.17221 2944 ft 176 kts 299°
2026-04-24 07:44 37.54181 -122.18529 2830 ft 164 kts 298°
2026-04-24 07:44 37.54691 -122.19764 2699 ft 152 kts 297°
2026-04-24 07:44 37.55169 -122.20927 2617 ft 150 kts 298°
2026-04-24 07:44 37.55656 -122.22104 2426 ft 149 kts 298°
2026-04-24 07:45 37.56133 -122.23251 2225 ft 148 kts 298°
2026-04-24 07:45 37.56611 -122.24393 2025 ft 147 kts 298°
2026-04-24 07:45 37.57081 -122.25518 1828 ft 145 kts 298°
2026-04-24 07:45 37.57551 -122.26642 1631 ft 144 kts 298°
2026-04-24 07:46 37.58011 -122.27758 1433 ft 144 kts 297°
2026-04-24 07:46 37.58476 -122.28886 1237 ft 144 kts 297°
2026-04-24 07:46 37.58929 -122.30002 1056 ft 144 kts 297°
2026-04-24 07:46 37.59407 -122.31122 870 ft 144 kts 299°
2026-04-24 07:47 37.59892 -122.32211 674 ft 143 kts 297°
2026-04-24 07:47 37.60344 -122.33335 483 ft 143 kts 297°
2026-04-24 07:47 37.60808 -122.34431 305 ft 142 kts 298°
2026-04-24 07:47 37.61270 -122.35521 115 ft 142 kts 297°
2026-04-24 07:48 37.61728 -122.36606 22 ft 130 kts 296°
2026-04-24 07:48 37.62074 -122.37431 28 ft 80 kts 297°
2026-04-24 07:48 37.62254 -122.37869 37 ft 43 kts 298°
2026-04-24 07:48 37.62334 -122.38065 38 ft 19 kts 286°
2026-04-24 07:49 37.62320 -122.38216 38 ft 15 kts 233°
2026-04-24 07:49 37.62226 -122.38286 40 ft 16 kts 195°
2026-04-24 07:49 37.62111 -122.38324 41 ft 17 kts 196°
2026-04-24 07:49 37.62064 -122.38375 41 ft 9 kts 250°
2026-04-24 07:50 37.62083 -122.38464 41 ft 12 kts 307°
2026-04-24 07:50 37.62129 -122.38568 41 ft 14 kts 293°
2026-04-24 07:50 37.62173 -122.38698 41 ft 12 kts 293°
2026-04-24 07:50 37.62179 -122.38769 41 ft 5 kts 263°
2026-04-24 07:51 37.62158 -122.38800 41 ft 6 kts 223°
2026-04-24 07:51 37.62127 -122.38830 41 ft 4 kts 209°
2026-04-24 07:51 37.62115 -122.38839 41 ft 0 kts 209°